Location: B?jaj?g
(11.7167°N, 92.6667°E)
Time: 15:38:52
(UTC+00:00)

Cosmos 1603 - Pass Details

Date: 18 September 2020
Orbit: 832 x 858 km, 71.0° (Epoch: 30 October)

Event Time Altitude Azimuth Distance (km) Brightness Sun altitude
Rises 13:26:36 0° 349° (N) 3,381 7.1 -24.9°
Reaches altitude 10° 13:29:04 10° 352° (N) 2,444 6.3 -25.5°
Enters shadow 13:33:35 54° 24° (NNE) 1,009 3.9 -26.6°
